Hettinger, ND

5:11 AM MDT on October 01, 2016 (GMT -0600)
Hettinger Municipal

Weather History for KHEI - May, 2013

Change the Weather History Date:

Friday, May 24, 2013

  Actual Average Record
Temperature  
Mean Temperature 61 °F -  
Max Temperature 72 °F 68 °F 78 °F (2014)
Min Temperature 50 °F 42 °F 30 °F (2002)
Degree Days  
Heating Degree Days 4    
Cooling Degree Days 0 0  
Month to date cooling degree days 7 0  
Year to date cooling degree days 7 0  
Growing Degree Days 10 (Base 50)    
Moisture  
Dew Point 47 °F    
Average Humidity 65    
Maximum Humidity 89    
Minimum Humidity 37    
Precipitation  
Precipitation 0.00 in 0.07 in 0.50 in (2008)
Month to date precipitation 2.71 1.82  
Year to date precipitation 3.94 4.78  
Sea Level Pressure  
Sea Level Pressure 29.92 in    
Wind  
Wind Speed 16 mph (ESE)    
Max Wind Speed 28 mph    
Max Gust Speed 38 mph    
Visibility 10 miles    
Events      
T = Trace of Precipitation, MM = Missing Value Source: NWS Daily Summary

Daily Weather History Graph

Daily Weather History Graph

Search for Another Location

Airport or City:

Trip Planner

Search our weather history database for the weather conditions in past years. The results will help you decide how hot, cold, wet, or windy it might be!

Date:

Astronomy

May. 24, 2013 Rise Set
Actual Time 5:08 AM MDT 8:26 PM MDT
Civil Twilight 4:32 AM MDT 9:03 PM MDT
Nautical Twilight 3:45 AM MDT 9:50 PM MDT
Astronomical Twilight 2:45 AM MDT 10:51 PM MDT
Moon 8:09 PM MDT (5/24) 4:45 AM MDT (5/24)
Length of Visible Light 16h 30m
Length of Day
15h 17m
Full, 100% of the Moon is Illuminated
May 24
Full
May 24
Full
May 31
Last Quarter
Jun 8
New
Jun 16
First Quarter

Hourly Weather History & Observations

Time (MDT) Temp. Dew Point Humidity Pressure Visibility Wind Dir Wind Speed Gust Speed Precip Events Conditions
12:53 AM 53.1 °F 43.0 °F 69% 29.99 in 10.0 mi ESE 25.3 mph 39.1 mph N/A   Clear
1:53 AM 52.0 °F 42.1 °F 69% 29.97 in 10.0 mi ESE 19.6 mph 29.9 mph N/A   Clear
2:53 AM 51.1 °F 42.1 °F 71% 29.95 in 10.0 mi SE 25.3 mph 34.5 mph N/A   Clear
3:53 AM 50.0 °F 42.1 °F 74% 29.92 in 10.0 mi SE 21.9 mph 31.1 mph N/A   Clear
4:53 AM 50.0 °F 43.0 °F 77% 29.90 in 10.0 mi SE 23.0 mph 31.1 mph N/A   Clear
5:53 AM 52.0 °F 44.1 °F 74% 29.90 in 10.0 mi SE 20.7 mph 34.5 mph N/A   Overcast
6:53 AM 52.0 °F 44.1 °F 74% 29.90 in 10.0 mi SE 19.6 mph 25.3 mph N/A   Mostly Cloudy
7:37 AM 55.4 °F 46.4 °F 72% 29.90 in 10.0 mi SE 17.3 mph 28.8 mph N/A   Mostly Cloudy
7:53 AM 55.9 °F 46.0 °F 69% 29.88 in 10.0 mi SE 24.2 mph 32.2 mph N/A   Overcast
8:17 AM 55.4 °F 46.4 °F 72% 29.90 in 10.0 mi SE 15.0 mph 24.2 mph N/A   Overcast
8:32 AM 55.4 °F 46.4 °F 72% 29.90 in 10.0 mi SE 16.1 mph 21.9 mph N/A   Overcast
8:53 AM 57.0 °F 48.0 °F 72% 29.88 in 10.0 mi SE 21.9 mph 32.2 mph N/A   Overcast
9:53 AM 60.1 °F 50.0 °F 69% 29.88 in 10.0 mi SE 20.7 mph 26.5 mph N/A   Overcast
10:53 AM 64.0 °F 52.0 °F 65% 29.89 in 10.0 mi SSE 17.3 mph 25.3 mph N/A   Overcast
11:14 AM 64.4 °F 51.8 °F 64% 29.90 in 10.0 mi South 18.4 mph 24.2 mph N/A   Mostly Cloudy
11:53 AM 64.9 °F 53.1 °F 65% 29.88 in 10.0 mi SSE 17.3 mph 24.2 mph N/A   Overcast
12:53 PM 66.9 °F 54.0 °F 63% 29.88 in 10.0 mi SSW 10.4 mph - N/A   Overcast
1:14 PM 62.6 °F 51.8 °F 68% 29.92 in 10.0 mi WNW 18.4 mph 24.2 mph N/A   Overcast
1:53 PM 69.1 °F 53.1 °F 57% 29.89 in 10.0 mi WNW 17.3 mph 21.9 mph N/A   Partly Cloudy
2:53 PM 69.1 °F 51.1 °F 53% 29.91 in 10.0 mi NW 15.0 mph 24.2 mph N/A   Partly Cloudy
3:53 PM 71.1 °F 46.0 °F 41% 29.91 in 10.0 mi NNW 15.0 mph - N/A   Clear
4:53 PM 71.1 °F 44.1 °F 38% 29.91 in 10.0 mi NNW 15.0 mph 23.0 mph N/A   Clear
5:53 PM 70.0 °F 42.1 °F 36% 29.92 in 10.0 mi NNW 15.0 mph - N/A   Clear
6:53 PM 68.0 °F 43.0 °F 40% 29.94 in 10.0 mi NNW 9.2 mph - N/A   Clear
7:53 PM 61.0 °F 46.0 °F 58% 29.95 in 10.0 mi North 6.9 mph - N/A   Clear
8:53 PM 61.0 °F 41.0 °F 48% 29.96 in 10.0 mi NNE 11.5 mph - N/A   Clear
9:53 PM 55.9 °F 46.0 °F 69% 29.98 in 10.0 mi NE 9.2 mph - N/A   Clear
10:53 PM 53.1 °F 48.9 °F 86% 29.99 in 10.0 mi NE 9.2 mph - N/A   Clear
11:53 PM 53.1 °F 50.0 °F 89% 29.99 in 10.0 mi NE 10.4 mph - N/A   Clear